Date String (YYYY-MM-DD hh:mm:ss) UTC,Instrument flags,absolute air pressure of the measurement (hPa),sample flow rate (lpm),inlet stack bypass flow (lpm),air temperature of the measurement (°C),ambient temperature measured by the external sensor (°C),aerosol sample conditioner tube jacket temperature (°C),OPC LED temperature (°C),internal box temperature (°C),relative humidity of the measurement (%),span deviation,mass concentration of particles derived from Lorenz-Mie calculation of OPC scattering (μg/m³),mass concentration of particles derived from Lorenz-Mie calculation of OPC scattering (μg/m³),mass concentration of particles derived from Lorenz-Mie calculation of OPC scattering (μg/m³)
DateTimeUTC,F1_M11,P_M11,Q1_M11,Q2_M11,T1_M11,T2_M11,T3_M11,T4_M11,T5_M11,U1_M11,ZSPAN_M11,X0_M11,X2_M11,X1_M11
2023-06-26 03:00:00,SystemResetWarning,0832.2,4.98,000.00,029.3,027.8,000.0,037.8,030.9,30.8,0000.0,0015.62,0004.79,0003.58
2023-06-26 03:01:00,SystemResetWarning,0832.2,5.02,000.00,029.4,027.9,000.0,037.8,031.0,30.6,0000.0,0015.68,0004.78,0003.59
2023-06-26 03:02:00,SystemResetWarning,0832.2,5.00,000.00,029.4,028.1,000.0,037.8,031.0,30.6,0000.0,0014.95,0004.71,0003.60
2023-06-26 03:03:00,SystemResetWarning,0832.2,4.99,000.00,029.4,028.2,000.0,037.9,031.1,30.7,0000.0,0014.34,0004.67,0003.61
2023-06-26 03:04:00,SystemResetWarning,0832.2,4.99,000.00,029.5,028.3,000.0,037.9,031.1,30.6,0000.0,0013.77,0004.61,0003.62
2023-06-26 03:05:00,SystemResetWarning,0832.2,5.00,000.00,029.5,027.3,000.0,037.9,031.2,30.3,0000.0,0014.61,0004.58,0003.61
2023-06-26 03:06:00,SystemResetWarning,0832.2,5.00,000.00,029.5,025.4,000.0,037.8,031.2,30.0,0000.0,0014.35,0004.56,0003.61
2023-06-26 03:07:00,SystemResetWarning,0832.2,5.01,000.00,029.5,025.0,000.0,037.8,031.0,30.1,0000.0,0014.05,0004.58,0003.61
2023-06-26 03:08:00,SystemResetWarning,0832.1,5.01,000.00,029.4,025.3,000.0,037.8,030.7,30.3,0000.0,0014.25,0004.58,0003.62
2023-06-26 03:09:00,SystemResetWarning,0832.1,5.00,000.00,029.3,025.7,000.0,037.8,030.6,30.3,0000.0,0014.47,0004.60,0003.63
2023-06-26 03:10:00,SystemResetWarning,0832.2,5.00,000.00,029.3,026.2,000.0,037.8,030.7,30.2,0000.0,0013.21,0004.59,0003.64
2023-06-26 03:11:00,SystemResetWarning,0832.1,5.00,000.00,029.3,026.6,000.0,037.8,030.7,30.3,0000.0,0013.16,0004.58,0003.64
2023-06-26 03:12:00,SystemResetWarning,0832.2,5.00,000.00,029.3,026.9,000.0,037.8,030.8,30.2,0000.0,0012.98,0004.57,0003.64
2023-06-26 03:13:00,SystemResetWarning,0832.1,5.00,000.00,029.4,027.2,000.0,037.9,030.8,30.1,0000.0,0013.00,0004.58,0003.65
2023-06-26 03:14:00,SystemResetWarning,0832.2,5.00,000.00,029.4,027.5,000.0,037.9,030.9,30.1,0000.0,0013.64,0004.57,0003.65
2023-06-26 03:15:00,SystemResetWarning,0832.2,5.00,000.00,029.4,027.7,000.0,037.9,030.9,29.7,0000.0,0014.25,0004.63,0003.66
2023-06-26 03:16:00,SystemResetWarning,0832.2,5.00,000.00,029.4,027.9,000.0,037.9,031.0,29.5,0000.0,0014.35,0004.67,0003.67
2023-06-26 03:17:00,SystemResetWarning,0832.2,4.98,000.00,029.5,028.0,000.0,037.9,031.1,29.6,0000.0,0013.37,0004.64,0003.67
2023-06-26 03:18:00,SystemResetWarning,0832.3,5.01,000.00,029.5,028.1,000.0,037.9,031.1,29.6,0000.0,0013.07,0004.63,0003.67
2023-06-26 03:19:00,SystemResetWarning,0832.3,5.00,000.00,029.5,027.8,000.0,037.9,031.2,29.7,0000.0,0013.11,0004.62,0003.67
2023-06-26 03:20:00,SystemResetWarning,0832.2,4.97,000.00,029.6,025.8,000.0,037.9,031.2,29.8,0000.0,0014.89,0004.62,0003.66
2023-06-26 03:21:00,SystemResetWarning,0832.2,5.01,000.00,029.5,025.0,000.0,037.8,031.2,30.0,0000.0,0014.83,0004.64,0003.68
2023-06-26 03:22:00,SystemResetWarning,0832.2,5.03,000.00,029.5,025.1,000.0,037.8,030.8,30.2,0000.0,0015.59,0004.64,0003.68
2023-06-26 03:23:00,SystemResetWarning,0832.2,4.98,000.00,029.4,025.5,000.0,037.9,030.6,30.1,0000.0,0015.07,0004.65,0003.68
2023-06-26 03:24:00,SystemResetWarning,0832.3,4.99,000.00,029.3,026.0,000.0,037.9,030.7,30.2,0000.0,0015.50,0004.74,0003.68
2023-06-26 03:25:00,SystemResetWarning,0832.3,5.01,000.00,029.3,026.4,000.0,037.9,030.7,30.2,0000.0,0015.34,0004.79,0003.68
2023-06-26 03:26:00,SystemResetWarning,0832.3,5.00,000.00,029.3,026.8,000.0,037.9,030.8,30.2,0000.0,0014.95,0004.75,0003.67
2023-06-26 03:27:00,SystemResetWarning,0832.3,4.99,000.00,029.4,027.1,000.0,037.9,030.8,30.2,0000.0,0014.76,0004.69,0003.65
2023-06-26 03:28:00,SystemResetWarning,0832.3,5.00,000.00,029.4,027.4,000.0,037.9,030.9,30.3,0000.0,0014.95,0004.71,0003.65
2023-06-26 03:29:00,SystemResetWarning,0832.3,5.01,000.00,029.4,027.6,000.0,037.9,031.0,30.3,0000.0,0014.89,0004.69,0003.64
2023-06-26 03:30:00,SystemResetWarning,0832.4,5.01,000.00,029.4,027.8,000.0,037.9,031.0,30.4,0000.0,0015.87,0004.71,0003.66
2023-06-26 03:31:00,SystemResetWarning,0832.4,5.00,000.00,029.5,027.9,000.0,037.9,031.1,30.4,0000.0,0015.22,0004.71,0003.66
2023-06-26 03:32:00,SystemResetWarning,0832.4,5.00,000.00,029.5,028.1,000.0,038.0,031.1,30.5,0000.0,0016.03,0004.72,0003.65
2023-06-26 03:33:00,SystemResetWarning,0832.4,5.00,000.00,029.5,028.2,000.0,038.0,031.2,30.5,0000.0,0015.68,0004.71,0003.65
2023-06-26 03:34:00,SystemResetWarning,0832.5,4.99,000.00,029.6,027.8,000.0,038.0,031.2,30.2,0000.0,0015.85,0004.71,0003.65
2023-06-26 03:35:00,SystemResetWarning,0832.5,5.00,000.00,029.6,025.8,000.0,037.9,031.2,30.0,0000.0,0016.37,0004.65,0003.65
2023-06-26 03:36:00,SystemResetWarning,0832.5,5.02,000.00,029.6,025.0,000.0,037.9,031.2,30.0,0000.0,0016.92,0004.60,0003.65
2023-06-26 03:37:00,SystemResetWarning,0832.5,5.00,000.00,029.5,025.2,000.0,037.9,030.8,30.4,0000.0,0016.79,0004.60,0003.65
2023-06-26 03:38:00,SystemResetWarning,0832.5,5.01,000.00,029.4,025.6,000.0,037.9,030.7,30.6,0000.0,0016.37,0004.63,0003.65
2023-06-26 03:39:00,SystemResetWarning,0832.5,4.99,000.00,029.4,026.0,000.0,037.9,030.7,30.9,0000.0,0016.06,0004.59,0003.65
2023-06-26 03:40:00,SystemResetWarning,0832.5,5.01,000.00,029.4,026.4,000.0,037.9,030.8,30.9,0000.0,0016.01,0004.62,0003.65
2023-06-26 03:41:00,SystemResetWarning,0832.6,5.00,000.00,029.4,026.8,000.0,037.9,030.8,30.9,0000.0,0015.85,0004.62,0003.66
2023-06-26 03:42:00,SystemResetWarning,0832.5,4.99,000.00,029.4,027.1,000.0,037.9,030.9,30.7,0000.0,0014.66,0004.59,0003.65
2023-06-26 03:43:00,SystemResetWarning,0832.6,5.00,000.00,029.4,027.4,000.0,037.9,030.9,30.6,0000.0,0013.00,0004.54,0003.65
2023-06-26 03:44:00,SystemResetWarning,0832.6,5.00,000.00,029.4,027.6,000.0,037.9,030.9,30.7,0000.0,0012.78,0004.54,0003.64
2023-06-26 03:45:00,SystemResetWarning,0832.5,5.00,000.00,029.5,027.8,000.0,038.0,031.0,30.6,0000.0,0012.64,0004.51,0003.65
2023-06-26 03:46:00,SystemResetWarning,0832.5,4.99,000.00,029.5,027.9,000.0,038.0,031.1,30.6,0000.0,0011.56,0004.49,0003.65
2023-06-26 03:47:00,SystemResetWarning,0832.5,4.99,000.00,029.5,028.1,000.0,038.0,031.1,30.4,0000.0,0010.91,0004.56,0003.66
2023-06-26 03:48:00,SystemResetWarning,0832.5,5.01,000.00,029.6,028.2,000.0,038.0,031.2,30.1,0000.0,0011.16,0004.63,0003.66
2023-06-26 03:49:00,SystemResetWarning,0832.5,5.01,000.00,029.6,027.7,000.0,038.0,031.2,30.1,0000.0,0011.24,0004.64,0003.66
2023-06-26 03:50:00,SystemResetWarning,0832.5,4.98,000.00,029.6,025.7,000.0,037.9,031.2,30.1,0000.0,0011.71,0004.68,0003.66
2023-06-26 03:51:00,SystemResetWarning,0832.5,5.02,000.00,029.6,025.0,000.0,037.9,031.2,30.1,0000.0,0011.85,0004.70,0003.66
2023-06-26 03:52:00,SystemResetWarning,0832.5,5.00,000.00,029.5,025.2,000.0,037.9,030.9,30.2,0000.0,0010.99,0004.68,0003.65
2023-06-26 03:53:00,SystemResetWarning,0832.5,5.00,000.00,029.4,025.5,000.0,037.9,030.7,30.4,0000.0,0011.30,0004.71,0003.65
2023-06-26 03:54:00,SystemResetWarning,0832.5,4.99,000.00,029.4,026.0,000.0,037.9,030.7,30.5,0000.0,0011.61,0004.73,0003.65
2023-06-26 03:55:00,SystemResetWarning,0832.5,5.00,000.00,029.4,026.4,000.0,037.9,030.8,30.5,0000.0,0011.60,0004.74,0003.66
2023-06-26 03:56:00,SystemResetWarning,0832.6,5.01,000.00,029.4,026.8,000.0,037.9,030.8,30.5,0000.0,0011.38,0004.78,0003.66
2023-06-26 03:57:00,SystemResetWarning,0832.5,4.99,000.00,029.4,027.1,000.0,037.9,030.9,30.6,0000.0,0011.23,0004.76,0003.65
2023-06-26 03:58:00,SystemResetWarning,0832.5,4.99,000.00,029.4,027.4,000.0,037.9,030.9,30.5,0000.0,0011.12,0004.70,0003.65
2023-06-26 03:59:00,SystemResetWarning,0832.5,5.01,000.00,029.4,027.6,000.0,037.9,030.9,30.5,0000.0,0010.76,0004.66,0003.66
